Terug naar catalogus

CZ-6A DEB

ActiefPO
NORAD 60776·DEBRIS·🇨🇳 China

Gelanceerd Aug 6, 2024 vanaf Taiyuan Satellite Launch Center

Loading…

Volgende Passages (komende 24 uur)

TLE

VersSource: Space-Track

Epoch: Sep 14, 2026, 07:38 UTC

1 60776U 24140FB  26257.31855801  .00040653  00000-0  16486-2 0  9995
2 60776  89.1814 272.7339 0057928 144.5476 215.9644 15.22896843113716

Volg CZ-6A DEB in realtime met AllMySat

Download on the App Store